Location: Newark
(44.3248°N, 23.7839°E)
Time: 09:35:35
(UTC+00:00)

UNISAT 6 - Pass Details

Date: 27 April 2024
Orbit: 593 x 667 km, 97.7° (Epoch: 29 May)

Event Time Altitude Azimuth Distance (km) Brightness Sun altitude
Rises 02:10:19 0° 162° (SSE) 2,911 ? -12.1°
Reaches altitude 10° 02:12:32 10° 161° (SSE) 1,996 ? -11.8°
Maximum altitude 02:16:51 78° 76° (ENE) 635 ? -11.1°
Drops below altitude 10° 02:21:08 10° 350° (N) 1,969 ? -10.5°
Sets 02:23:18 0° 349° (N) 2,868 ? -10.2°
